Find Starlink 5590

NORAD ID: 55371 Int'l Des: 2023-013 Owner: SPXS Country: US Constellation: starlink operational
LEOCIRCULAR

Current View

Loading 3D Globe...

About Starlink 5590

Description loading...

Upcoming Passes

Passes for default location (London). Set your location on the main map for personalized predictions.

Altitude History

Loading altitude history...

Two-Line Element Set

1 55371U 23013AS 26150.59738848 .00003493 00000-0 13653-3 0 9996
2 55371 43.0021 218.6404 0001409 272.8448 87.2243 15.27550079184917
Epoch: May 30, 2026 • Age: 22 hours

Current Status

Altitude 485.1 km
Velocity 7.63 km/s
Sub-Earth Point 34.05°N, 177.69°W
Launch Date Jan 26, 2023
Age 3.3 years
Type internet

Technical Details

Classification Payload
Mass 305.00 kg
Dry Mass 290.00 kg
Total Mass 305.00 kg
Length 0.20 m
Diameter 2.80 m
Span 9.00 m
Shape Box + pan
Manufacturer SPXS
Bus Type Starlink
Phase Status In Orbit
Owner/State SPXS/US

Most Searched